| time (UTC) | temp F | wind direction | speed MPH | gust MPH | rain 1hr in | rain 24hr in | rain mn in | humidity % | barometer mb |
| 20260904215749 | 83 | 15 | 9.0 | 13.0 | 0.00 | 0.00 | 0.00 | 60 | 1015.3 |
| 20260904214749 | 83 | 4 | 8.0 | 11.0 | 0.00 | 0.00 | 0.00 | 60 | 1015.3 |
| 20260904205746 | 84 | 1 | 7.0 | 9.0 | 0.00 | 0.00 | 0.00 | 60 | 1015.3 |
| 20260904204245 | 85 | 1 | 6.0 | 9.0 | 0.00 | 0.00 | 0.00 | 57 | 1015.4 |
| 20260904203745 | 85 | 359 | 1.0 | 3.0 | 0.00 | 0.00 | 0.00 | 58 | 1015.4 |
| 20260904202244 | 84 | 80 | 3.0 | 6.0 | 0.00 | 0.00 | 0.00 | 59 | 1015.4 |
| 20260904201743 | 83 | 15 | 5.0 | 8.0 | 0.00 | 0.00 | 0.00 | 61 | 1015.4 |
| 20260904200243 | 83 | 176 | 5.0 | 7.0 | 0.00 | 0.00 | 0.00 | 62 | 1015.4 |
| 20260904193740 | 80 | 13 | 11.0 | 15.0 | 0.00 | 0.00 | 0.00 | 65 | 1015.5 |
| 20260904193239 | 80 | 120 | 8.0 | 13.0 | 0.00 | 0.00 | 0.00 | 66 | 1015.6 |
| 20260904191238 | 79 | 336 | 4.0 | 10.0 | 0.00 | 0.00 | 0.00 | 70 | 1015.7 |
| 20260904185735 | 78 | 98 | 3.0 | 7.0 | 0.00 | 0.00 | 0.00 | 72 | 1015.8 |
| 20260904182733 | 76 | 30 | 5.0 | 6.0 | 0.00 | 0.00 | 0.00 | 78 | 1016.0 |
| 20260904173729 | 74 | 46 | 4.0 | 7.0 | 0.00 | 0.00 | 0.00 | 83 | 1015.7 |
| 20260904170727 | 73 | 20 | 7.0 | 10.0 | 0.00 | 0.00 | 0.00 | 91 | 1015.7 |
| 20260904163223 | 74 | 15 | 6.0 | 8.0 | 0.00 | 0.00 | 0.00 | 95 | 1015.3 |
| 20260904161222 | 73 | 3 | 6.0 | 8.0 | 0.00 | 0.00 | 0.00 | 99 | 1014.9 |
| 20260904160722 | 73 | 359 | 3.0 | 4.0 | 0.00 | 0.00 | 0.00 | 100 | 1014.9 |
| 20260904160222 | 72 | 357 | 6.0 | 8.0 | 0.00 | 0.00 | 0.00 | 100 | 1014.9 |
| 20260904155221 | 71 | 13 | 6.0 | 7.0 | 0.00 | 0.00 | 0.00 | 100 | 1014.8 |
| 20260904153220 | 71 | 10 | 5.0 | 7.0 | 0.00 | 0.00 | 0.00 | 100 | 1014.7 |
| 20260904151719 | 70 | 6 | 5.0 | 8.0 | 0.00 | 0.00 | 0.00 | 100 | 1014.7 |
| 20260904143216 | 70 | 323 | 6.0 | 7.0 | 0.00 | 0.00 | 0.00 | 99 | 1014.2 |
| 20260904142216 | 70 | 138 | 2.0 | 3.0 | 0.00 | 0.00 | 0.00 | 98 | 1014.1 |
| 20260904141716 | 70 | 146 | 3.0 | 5.0 | 0.00 | 0.00 | 0.00 | 98 | 1014.1 |
| 20260904141215 | 70 | 0 | 0.0 | 0.0 | 0.00 | 0.00 | 0.00 | 98 | 1014.0 |
| 20260904135214 | 70 | 173 | 5.0 | 7.0 | 0.00 | 0.00 | 0.00 | 98 | 1013.6 |
| 20260904130210 | 68 | 0 | 0.0 | 0.0 | 0.00 | 0.00 | 0.00 | 98 | 1013.6 |
| 20260904120152 | 67 | 24 | 3.0 | 5.0 | 0.00 | 0.00 | 0.00 | 98 | 1013.0 |
| 20260904111646 | 68 | 48 | 4.0 | 6.0 | 0.00 | 0.00 | 0.00 | 97 | 1012.6 |
| 20260904105644 | 68 | 63 | 2.0 | 3.0 | 0.00 | 0.00 | 0.00 | 97 | 1012.5 |
| 20260904104143 | 68 | 118 | 4.0 | 9.0 | 0.00 | 0.00 | 0.00 | 98 | 1012.5 |
| 20260904094639 | 69 | 48 | 4.0 | 6.0 | 0.00 | 0.00 | 0.00 | 98 | 1012.5 |
| 20260904085135 | 72 | 97 | 4.0 | 8.0 | 0.00 | 0.00 | 0.00 | 98 | 1012.1 |
| 20260904082133 | 73 | 0 | 0.0 | 0.0 | 0.00 | 0.00 | 0.00 | 97 | 1011.7 |
| 20260904065127 | 74 | 0 | 0.0 | 0.0 | 0.00 | 0.00 | 0.00 | 93 | 1011.7 |
| 20260904042618 | 76 | 0 | 0.0 | 0.0 | 0.00 | 0.00 | 0.00 | 82 | 1011.4 |
| 20260904023609 | 80 | 190 | 3.0 | 7.0 | 0.00 | 0.00 | 0.00 | 68 | 1011.0 |
| 20260904022609 | 80 | 187 | 6.0 | 8.0 | 0.00 | 0.00 | 0.00 | 68 | 1011.0 |
| 20260904022108 | 81 | 110 | 0.0 | 2.0 | 0.00 | 0.00 | 0.00 | 68 | 1010.9 |
| 20260904021608 | 81 | 117 | 3.0 | 5.0 | 0.00 | 0.00 | 0.00 | 68 | 1011.0 |
| 20260904021108 | 81 | 170 | 3.0 | 6.0 | 0.00 | 0.00 | 0.00 | 67 | 1010.9 |
| 20260904002601 | 84 | 176 | 1.0 | 3.0 | 0.00 | 0.00 | 0.00 | 60 | 1010.1 |
| 20260903234057 | 84 | 139 | 6.0 | 14.0 | 0.00 | 0.00 | 0.00 | 58 | 1010.5 |
| 20260903233557 | 85 | 226 | 5.0 | 7.0 | 0.00 | 0.00 | 0.00 | 59 | 1010.4 |